Content
SEND FEEDBACK

Daily
Averages
Monthly
Summary
Canada

HAMILTON, ONTARIO


Home > North America > Canada > Ontario
Elevation: 776 feet     Latitude: 43 10N     Longitude: 079 55W

WEATHER
 
SELECT A DAY
Number of Records: 167,292;   Date Range: 1/1/95 - 7/11/14
 
SHARE

PRINT THIS DATA

[ ← Previous Day ]
WEATHER ALMANAC - APRIL 7, 2013
[ Next Day → ]
[ °C ]   °F
Weather ElementAverageHighLow
Temperature49 °F62.6 °F (1:00 pm)37 °F (2:00 am)
Dewpoint34.8 °F44.6 °F (1:00 pm)24.8 °F (4:00 am)
Humidity57.1 %70 % (2:00 am)46 % (8:00 am)
Barometer29.82 in30.04 in (11:00 pm)29.67 in (10:00 am)
Wind Speed18.1 mph29.9 mph (11:00 am)
Wind Gust43.7 mph (11:00 am)
Weather ElementAverage
Visibility15 mi
Wind DirectionWSW (231.9 °)

Weather ElementTotal
Precipitation---
Heating Degree Days15.2 (Base 65)
Averaged from 26 records on April 7, 2013
WEATHER CONDITIONS BREAKOUT
WIND DIRECTION BREAKOUT
WEATHER BY HOUR - APRIL 7, 2013
[ °C ]   °F
Local TimeTemperatureDewpointHumidityBarometerVisibilityWind DirectionWind SpeedGust SpeedPrecipitationEventsConditions
2:00 AM37.0 °F29.0 °F62 %29.89 in15.0 miEast (100°)3.5 mphOvercast
2:00 AM37.4 °F28.4 °F70 %29.89 in15.0 miEast (100°)3.5 mphOvercast
3:00 AM39.2 °F26.6 °F61 %29.84 in15.0 miSE (140°)6.9 mphOvercast
4:00 AM42.8 °F24.8 °F49 %29.79 in15.0 miSouth (170°)12.7 mphOvercast
5:00 AM46.4 °F28.4 °F50 %29.79 in15.0 miSSW (210°)18.4 mph26.5 mphRainLight Rain Showers
7:00 AM50.0 °F30.2 °F47 %29.71 in15.0 miSouth (190°)20.7 mph27.6 mphMostly Cloudy
7:52 AM50.0 °F33.8 °F54 %29.72 in15.0 miSSW (210°)19.6 mph27.6 mphMostly Cloudy
8:00 AM49.0 °F35.0 °F46 %29.72 in15.0 miSSW (210°)19.6 mphRainLight Rain Showers
8:00 AM50.0 °F33.8 °F54 %29.71 in15.0 miSSW (210°)18.4 mph26.5 mphRainLight Rain Showers
8:49 AM51.8 °F35.6 °F54 %29.69 in15.0 miSSW (200°)24.2 mph33.4 mphOvercast
9:00 AM51.8 °F35.6 °F54 %29.68 in15.0 miSSW (200°)23.0 mph32.2 mphOvercast
10:00 AM55.4 °F37.4 °F51 %29.67 in15.0 miSSW (210°)27.6 mph36.8 mphOvercast
11:00 AM59.0 °F41.0 °F51 %29.68 in15.0 miWSW (240°)29.9 mph43.7 mphOvercast
1:00 PM62.6 °F44.6 °F52 %29.69 in15.0 miWSW (240°)28.8 mph39.1 mphMostly Cloudy
2:00 PM59.0 °F44.0 °F47 %29.73 in15.0 miWest (260°)25.3 mphPartly Cloudy
2:00 PM59.0 °F44.6 °F59 %29.73 in15.0 miWSW (250°)25.3 mph35.7 mphMostly Cloudy
3:00 PM57.2 °F41.0 °F55 %29.77 in15.0 miWNW (290°)24.2 mph35.7 mphScattered Clouds
4:00 PM53.6 °F39.2 °F58 %29.83 in15.0 miWest (280°)18.4 mph31.1 mphMostly Cloudy
5:00 PM51.8 °F37.4 °F58 %29.86 in15.0 miWNW (290°)20.7 mph31.1 mphScattered Clouds
6:00 PM48.2 °F35.6 °F62 %29.91 in15.0 miWest (280°)23.0 mph31.1 mphMostly Cloudy
7:00 PM46.4 °F33.8 °F62 %29.94 in15.0 miWest (280°)18.4 mph26.5 mphMostly Cloudy
8:00 PM44.0 °F34.0 °F57 %29.97 in15.0 miWNW (290°)12.7 mphOvercast
8:00 PM44.6 °F33.8 °F66 %29.97 in15.0 miWNW (290°)12.7 mph20.7 mphOvercast
9:00 PM42.8 °F33.8 °F70 %30.00 in15.0 miWNW (290°)13.8 mphOvercast
10:00 PM42.8 °F32.0 °F66 %30.03 in15.0 miWNW (300°)9.2 mphOvercast
11:00 PM41.0 °F32.0 °F70 %30.04 in15.0 miWNW (300°)9.2 mphOvercast
Hourly data recorded from CYHM, located miles away from Hamilton, Ontario







STORIES FROM OUR PARTNERS